Location: Saint-Gilles les Bains
(21.0539°S, 55.2287°E)
Time: 03:15:16
(UTC+04:00)

Hubble Space Telescope - Pass Details

Date: 18 April 2024
Orbit: 512 x 516 km, 28.5° (Epoch: 18 May)

Event Time Altitude Azimuth Distance (km) Brightness Sun altitude
Exits shadow 05:07:42 33° 197° (SSW) 887 1.6 -20.3°
Maximum altitude 05:07:56 33° 189° (S) 883 1.7 -20.2°
Drops below altitude 10° 05:11:37 10° 124° (ESE) 1,753 4.1 -19.4°
Sets 05:14:02 0° 114° (ESE) 2,642 5.4 -18.8°
